Wind_Speed
22 23 23 23 23 24 24 25 26 27 27 27 28 28 28 27 28 29 30 30 30 30 31 31 30 30 30 30 30 29 29 28 28 28 28 28 27 27 27 27 26 26 26 26 26 26 25 25 26 26 26 26 26 26 25 25 26 26 26 26 26 27 27 27 28 28 28 29 29 29 29 29 28 27 26 26 27 26 26 26 26 26 27 27 27 26
22 23 23 22 23 23 24 25 25 26 27 28 28 28 28 28 29 30 30 30 29 29 28 29 29 29 30 30 30 29 28 28 28 27 27 27 27 27 27 27 26 26 26 26 25 25 25 25 25 25 25 25 25 25 25 25 25 25 25 25 25 26 26 26 26 27 27 28 29 29 30 30 30 29 28 28 28 28 27 26 26 26 26 27 27 26
23 23 22 21 21 22 23 25 25 26 27 28 28 28 29 30 30 30 29 29 28 28 28 28 28 28 29 30 30 29 28 27 27 27 27 27 27 27 27 27 27 26 26 26 26 26 25 25 25 25 25 25 25 25 25 24 25 25 25 25 25 25 25 25 25 26 26 27 27 28 28 29 29 29 29 29 28 28 28 28 28 27 27 27 26 26
22 22 22 21 21 22 23 24 26 27 27 28 28 29 29 29 29 29 28 28 28 28 28 28 28 28 28 29 29 29 28 27 26 26 26 27 27 27 27 27 27 27 27 26 26 26 25 25 25 25 24 24 24 24 24 24 24 24 24 23 23 23 23 24 24 24 24 24 24 25 25 26 26 27 27 27 28 28 27 28 29 29 28 28 27 27
21 21 21 21 21 22 24 25 26 26 26 27 27 27 27 27 27 27 27 27 28 28 28 28 28 28 28 28 29 29 28 27 27 26 27 27 27 27 27 27 27 27 27 26 26 26 25 25 25 24 24 24 24 24 23 23 23 23 23 22 22 22 22 22 22 22 22 23 23 23 23 23 24 24 25 26 26 27 27 28 28 28 28 29 29 29
21 21 21 21 22 23 24 25 25 25 25 25 25 25 25 25 25 26 26 26 27 27 27 27 28 28 28 28 28 28 27 27 27 26 26 26 26 26 26 26 26 26 26 26 26 26 25 25 24 24 24 24 23 23 23 23 23 23 23 22 22 22 22 22 22 22 23 23 23 23 23 23 23 24 24 24 25 26 27 26 26 26 27 28 28 28
22 22 22 22 23 24 24 24 24 24 23 23 23 24 24 24 25 25 25 26 26 27 27 28 28 28 28 28 27 27 26 26 26 26 26 26 26 25 25 25 25 25 25 25 25 25 25 25 24 24 23 23 23 23 23 23 23 23 23 23 23 23 23 23 23 23 24 24 24 24 24 24 24 24 24 24 24 25 26 26 25 25 26 26 25 25
23 23 23 23 24 24 24 24 24 24 23 23 22 23 24 24 24 24 25 26 26 26 27 27 27 27 27 27 26 25 25 26 26 26 26 26 26 25 25 24 24 24 24 25 25 24 24 24 24 23 23 23 23 23 23 23 23 23 23 23 23 23 23 23 24 24 24 24 24 24 24 24 24 24 24 24 24 25 25 25 25 25 25 24 24 24
23 24 25 24 24 23 23 23 23 23 23 23 22 22 22 23 24 25 25 25 25 25 24 24 25 26 27 26 25 24 24 25 25 25 26 26 26 26 25 24 24 24 24 24 24 24 24 24 24 24 24 24 24 23 23 23 23 23 23 23 23 23 23 23 23 23 24 24 24 24 24 24 24 24 24 24 24 24 25 25 25 25 25 24 24 23
23 24 25 25 24 22 22 23 24 24 24 23 23 23 22 22 23 24 24 25 25 24 22 22 23 25 26 26 25 24 24 24 25 25 25 25 25 25 25 25 25 25 25 25 25 25 25 25 25 25 25 25 24 24 23 23 23 23 22 22 22 22 22 22 22 22 23 23 23 23 23 23 23 23 23 23 24 24 24 25 25 25 25 25 24 24
23 24 24 24 23 22 22 22 23 24 24 23 23 23 22 22 21 21 21 23 25 25 23 22 22 24 25 26 25 24 24 24 26 26 26 26 25 25 25 25 25 26 26 26 26 26 26 26 26 25 25 25 25 24 23 23 22 22 21 21 20 20 20 20 20 20 20 21 21 22 22 22 22 22 22 22 23 24 24 24 25 25 25 24 24 24
23 23 22 21 20 20 20 21 22 22 22 21 20 20 21 21 21 20 20 21 23 24 24 24 24 24 24 24 24 24 24 25 26 27 27 27 26 25 25 25 25 26 26 26 26 26 26 26 25 25 25 24 24 24 23 22 22 21 21 20 20 19 19 19 19 19 19 19 19 20 20 20 21 21 21 22 22 23 23 24 24 25 24 24 24 24
22 21 21 20 19 18 18 19 19 20 20 19 18 18 19 20 21 20 20 21 22 23 24 24 25 25 26 25 23 23 23 24 25 26 27 26 25 25 24 24 25 25 25 25 26 26 26 25 24 24 24 24 24 23 23 22 21 21 21 21 20 20 20 19 19 19 19 18 18 19 19 19 19 20 20 21 21 22 23 23 24 24 24 24 23 23
19 19 18 17 17 17 17 17 18 18 18 19 19 20 20 20 20 20 20 22 23 24 24 23 24 26 26 24 22 21 21 22 24 25 25 25 24 23 22 23 24 25 25 25 25 26 25 24 23 24 24 24 24 23 23 23 23 22 22 22 21 21 20 20 20 19 19 19 18 18 18 18 18 19 19 19 20 21 21 22 23 23 24 24 24 23
14 13 13 12 13 15 16 18 19 19 20 21 21 20 20 21 21 21 21 22 23 24 23 22 23 24 24 22 20 19 19 20 22 23 24 24 23 22 20 21 23 24 24 24 25 26 25 23 23 24 25 25 25 25 24 24 23 23 22 22 21 21 21 20 20 20 19 19 18 18 18 18 18 18 19 19 20 20 20 21 21 22 23 23 23 24
15 14 13 13 15 17 19 21 20 19 19 19 18 18 18 20 21 22 23 23 23 23 20 18 17 17 20 20 18 16 16 18 20 21 22 23 23 21 19 20 22 24 25 25 25 25 25 24 24 24 25 25 25 25 24 23 22 22 22 21 21 21 21 20 20 20 19 19 19 18 18 18 18 19 19 19 20 20 20 20 21 21 22 23 24 24
21 20 19 19 20 21 23 21 19 17 16 17 18 19 20 21 22 23 24 23 22 19 16 12 8 6 11 18 19 16 14 14 16 19 21 23 24 23 20 20 21 24 26 26 25 25 24 24 24 24 25 25 25 24 23 22 22 21 21 21 21 21 21 21 20 20 20 19 19 19 19 19 20 20 20 20 20 20 21 21 22 22 23 23 24 24
20 20 20 19 20 20 19 16 15 15 17 19 20 21 22 22 23 23 22 20 18 15 13 11 8 5 6 12 17 17 15 15 16 19 21 24 25 25 22 21 22 24 26 27 26 26 24 24 24 24 25 25 24 23 22 22 22 21 21 21 21 21 21 21 21 20 20 20 20 20 20 20 21 21 21 21 21 21 21 22 22 22 23 23 24 24
20 21 20 19 18 16 15 16 18 20 20 21 21 21 21 23 22 21 19 18 17 15 14 12 12 13 13 16 20 21 19 18 18 19 19 22 25 26 25 22 22 24 26 27 27 26 24 24 25 25 25 25 24 24 23 22 22 22 22 22 22 22 21 21 21 21 20 20 20 20 20 21 21 21 21 21 21 21 22 22 22 23 23 23 24 24
23 23 21 19 17 17 19 21 22 22 22 22 21 21 20 21 21 20 19 19 19 18 17 16 16 16 18 20 22 23 20 18 17 17 17 19 23 26 25 23 22 23 25 26 26 25 24 24 25 25 25 25 25 24 23 23 23 22 22 22 22 21 21 21 21 20 20 20 20 20 20 20 21 21 21 21 21 22 22 22 22 23 23 23 23 23
22 22 22 21 20 19 19 21 22 23 24 24 23 22 22 22 21 21 21 20 20 20 19 18 17 17 18 19 21 22 21 20 18 16 16 17 21 24 24 22 21 22 24 26 26 24 23 24 25 26 26 26 25 24 23 23 22 22 22 22 22 21 21 20 20 20 19 19 19 19 19 19 20 20 21 21 21 22 22 22 22 23 23 23 23 23
24 24 24 24 22 21 22 24 24 25 25 25 24 24 24 24 23 23 24 22 20 18 17 16 17 18 19 20 22 25 25 22 20 18 17 16 21 25 25 22 21 21 23 24 24 23 23 24 25 26 26 26 25 24 23 22 22 22 22 21 21 21 20 20 19 19 19 19 19 19 18 18 19 19 20 20 21 22 22 22 22 22 23 23 23 23
27 28 28 28 27 26 26 25 26 26 27 27 27 27 27 28 27 26 26 22 19 17 17 17 19 20 21 22 24 25 25 23 21 19 16 11 17 24 24 21 20 20 21 22 22 22 22 23 24 25 26 26 25 24 23 22 22 21 21 21 20 20 19 19 19 19 18 18 18 18 18 18 18 18 18 19 20 21 21 22 22 22 22 22 23 23
30 30 30 30 29 28 28 26 26 26 27 28 29 30 31 32 31 29 25 22 19 18 18 18 18 18 19 21 22 23 23 22 20 19 17 14 18 22 23 21 19 19 21 22 22 22 22 23 24 25 26 25 25 24 23 22 22 21 21 20 20 19 19 19 18 18 18 17 17 17 17 17 17 17 17 18 18 19 20 21 21 22 22 22 22 22
31 32 32 31 30 28 27 26 26 26 27 29 30 31 31 30 27 24 22 19 17 16 15 14 14 16 18 20 20 21 22 21 20 19 18 16 18 22 22 20 18 18 20 21 22 21 22 23 24 25 25 25 25 24 23 22 22 21 20 19 19 18 18 18 18 17 17 17 16 16 16 16 16 16 17 17 17 18 18 19 20 21 21 21 21 22
30 31 30 29 28 28 28 29 29 29 29 29 29 27 25 20 16 14 13 13 13 13 13 13 13 15 18 18 18 19 19 18 17 17 16 14 15 17 19 17 16 16 18 20 21 21 21 22 23 24 24 25 24 24 23 22 21 20 19 19 18 18 17 17 17 16 16 16 15 15 15 15 15 16 16 16 16 17 17 19 20 20 20 20 20 21
29 29 28 27 28 28 29 30 30 29 29 28 26 23 20 17 15 14 14 15 14 13 12 9 8 10 15 15 16 16 16 14 13 13 14 14 13 14 17 17 17 17 19 21 22 21 20 20 21 22 23 24 24 24 23 22 21 20 19 18 17 17 16 16 15 15 15 14 14 14 14 14 15 15 15 16 16 16 17 18 19 19 19 19 20 20
30 29 28 28 28 28 28 28 28 27 27 27 26 23 20 18 16 15 15 16 15 13 11 9 7 7 8 11 14 17 17 17 16 16 16 16 15 16 20 20 20 19 19 20 21 21 20 20 20 21 22 23 23 23 23 22 21 19 18 17 16 15 15 14 14 14 13 13 13 13 14 14 15 15 15 15 15 16 16 17 18 18 19 19 19 20
31 30 29 29 29 29 28 28 28 28 28 27 25 23 20 17 15 15 16 16 14 12 12 12 11 10 10 13 16 18 18 19 19 19 19 17 16 18 21 20 19 18 17 17 18 19 18 18 18 19 20 21 21 21 21 20 19 18 17 15 14 13 13 12 12 13 12 13 13 13 14 14 14 14 14 15 15 15 15 16 17 17 18 18 19 20
31 30 30 30 31 31 30 29 28 27 25 24 22 21 19 17 16 15 16 15 13 12 12 13 13 13 13 13 12 11 13 16 16 16 16 15 15 16 17 16 15 15 13 11 9 9 11 13 14 15 16 16 17 17 17 16 16 15 14 13 12 11 11 11 12 12 12 13 14 14 14 14 13 13 13 13 13 14 14 14 15 16 17 17 18 19
27 27 28 29 29 28 26 24 22 21 20 19 18 18 17 15 15 15 15 14 14 13 13 13 13 13 13 8 5 3 5 12 13 12 11 10 9 10 11 10 11 12 12 9 4 1 4 7 8 9 9 11 12 12 13 13 13 12 11 11 11 11 11 11 12 12 13 14 14 14 13 12 12 12 12 12 12 13 13 14 14 14 15 16 18 19
22 22 23 24 23 21 19 18 17 16 16 16 16 16 15 14 14 14 15 15 15 15 15 15 15 15 15 11 8 5 5 10 11 10 11 9 9 10 11 11 12 13 14 13 10 5 3 3 5 8 8 9 9 10 10 11 11 11 11 11 11 11 11 12 12 13 14 14 13 13 12 11 11 11 11 11 12 12 12 13 13 13 14 15 17 18
20 20 20 20 19 17 16 16 16 16 16 16 16 16 15 15 15 15 16 16 16 16 16 16 16 16 16 16 14 12 12 13 13 14 15 15 14 14 15 15 15 15 15 16 15 13 9 8 10 12 12 11 11 11 11 11 11 11 11 11 12 12 13 13 13 13 13 13 13 12 12 12 12 12 12 12 12 12 12 12 12 12 13 14 16 17
21 21 21 19 18 17 16 16 16 16 16 16 16 16 16 16 16 16 16 17 17 17 18 18 18 17 16 15 15 16 17 18 18 17 17 17 16 16 17 17 16 15 15 14 14 14 13 13 13 12 12 13 13 13 13 13 13 13 13 13 13 13 13 13 13 13 13 13 13 13 13 13 13 13 13 12 12 12 12 11 11 12 12 14 15 17
22 22 21 20 19 18 17 16 16 15 15 15 15 15 16 16 17 17 17 18 18 18 19 19 20 19 19 17 16 17 18 19 19 18 18 19 18 18 18 17 16 14 13 12 12 11 10 12 13 12 11 11 12 13 13 14 14 14 13 13 13 13 13 13 13 13 13 13 13 13 13 13 13 13 13 13 12 12 12 12 12 12 13 14 15 16
21 21 21 21 20 19 18 17 16 15 15 14 15 15 16 16 17 18 19 19 19 20 20 21 21 21 21 21 19 19 19 20 21 21 21 21 21 20 18 16 15 14 12 13 13 12 10 11 12 13 11 9 9 10 12 13 13 13 13 13 12 12 12 12 12 13 13 13 14 14 14 14 14 14 13 13 13 12 12 12 13 13 14 14 15 15
19 20 20 20 20 19 18 17 16 15 15 15 15 15 16 17 18 19 20 20 20 20 20 19 19 19 19 20 21 22 23 24 25 25 24 24 25 24 20 17 16 15 14 14 14 14 13 11 11 11 10 9 7 7 9 10 12 12 12 12 12 11 11 12 12 13 14 14 14 14 14 14 14 14 14 14 13 13 13 13 13 14 15 16 16 16
17 18 19 20 20 20 18 17 16 15 15 15 16 16 17 18 19 19 20 19 19 18 17 17 17 18 19 19 21 22 23 24 25 25 24 25 24 23 20 19 18 17 17 17 16 16 14 10 7 5 5 8 9 9 9 9 10 11 12 11 11 11 11 12 12 13 14 14 14 14 14 14 14 14 14 14 14 14 14 14 15 16 17 18 18 18
17 18 19 20 21 20 19 17 17 16 16 16 16 17 17 18 18 19 18 18 17 16 16 17 18 19 20 20 21 21 22 23 23 23 24 24 23 22 21 20 20 19 19 19 19 18 16 12 8 5 3 5 7 9 9 9 9 10 10 11 11 11 11 12 13 14 14 14 14 14 14 14 14 14 15 15 14 14 15 16 17 18 19 20 20 19
16 17 19 20 20 19 18 17 17 16 16 16 17 17 18 18 18 18 17 16 16 16 17 18 19 19 19 19 19 20 21 22 22 23 22 22 21 21 21 21 21 21 20 20 19 18 17 15 14 13 11 9 8 7 7 8 9 9 9 9 10 11 12 12 13 14 14 14 14 14 14 14 14 14 14 14 14 14 15 17 18 19 19 20 20 21
15 16 18 19 19 18 17 17 17 17 17 17 17 18 18 18 17 17 16 16 17 17 18 18 18 18 18 18 18 19 20 20 21 20 20 19 19 20 21 22 22 22 21 20 19 18 17 16 15 15 14 13 11 10 9 9 9 9 9 9 10 11 12 13 13 13 13 13 13 13 13 13 13 13 13 13 14 15 16 18 19 19 19 18 18 18
15 15 16 17 17 17 17 17 17 17 17 17 17 17 17 17 16 16 16 16 17 18 18 17 17 17 17 18 18 18 18 19 19 19 18 18 19 20 20 21 21 21 21 20 18 18 17 16 15 15 14 13 12 11 10 11 11 10 10 11 11 12 12 12 12 11 11 11 11 11 11 11 12 12 13 14 15 16 17 18 18 18 17 16 15 15
15 15 16 17 18 18 18 18 17 17 16 16 17 17 16 16 16 16 16 17 17 17 17 16 16 15 16 16 17 17 18 18 18 17 17 18 18 18 19 19 20 20 19 19 17 16 16 16 15 15 15 14 13 11 11 11 11 11 11 11 11 10 8 9 10 10 10 10 10 10 11 11 12 13 15 16 17 18 17 17 16 15 14 14 14 14
15 17 18 19 19 19 18 17 16 15 15 15 15 16 16 16 16 17 17 17 17 16 16 16 15 15 14 15 16 17 18 17 17 17 17 16 16 17 17 18 18 18 18 18 17 15 14 14 14 15 15 14 14 13 12 11 11 11 11 11 12 11 10 10 10 11 11 12 12 13 13 13 14 15 16 17 17 16 15 14 13 12 11 11 12 13
18 18 18 17 16 15 15 14 14 14 14 14 14 15 16 16 17 18 17 17 16 16 15 15 14 12 12 14 15 16 17 17 18 18 17 17 16 16 16 16 17 17 17 17 17 16 15 13 13 14 14 14 14 13 12 11 11 11 11 12 12 13 14 14 13 13 13 14 14 14 14 13 14 14 15 16 15 14 13 12 12 12 11 11 11 12
17 16 15 14 14 13 13 13 13 13 13 14 14 15 16 17 18 18 18 17 16 15 14 13 12 11 11 13 15 15 16 17 18 18 19 19 18 17 16 16 15 16 16 17 17 17 16 15 15 14 13 13 12 13 13 12 11 11 12 13 13 13 14 15 15 15 14 14 14 13 12 12 12 13 13 14 14 14 13 12 12 12 11 11 11 12
15 13 12 12 12 13 13 13 13 13 13 13 14 15 16 17 18 18 17 15 14 13 12 12 11 11 12 13 14 14 14 15 16 18 19 20 20 19 18 16 15 15 15 16 16 16 16 16 16 16 14 12 10 10 12 12 12 12 13 13 13 12 13 14 14 14 14 13 12 12 11 10 11 11 12 13 14 14 14 13 12 11 11 11 11 12
11 9 10 11 12 12 13 13 13 13 13 14 15 15 16 16 16 15 14 13 12 11 11 12 12 12 13 14 14 14 14 14 15 16 18 19 20 20 19 18 17 16 15 15 16 16 16 16 16 16 16 14 11 10 10 12 13 13 13 13 12 12 12 13 13 13 12 12 11 10 10 10 10 10 11 12 13 14 15 15 13 11 9 9 10 11
8 9 10 11 12 13 13 14 14 14 14 14 14 15 16 16 14 13 12 12 12 12 12 12 12 12 12 13 14 14 14 14 15 16 17 18 18 18 18 18 17 17 16 15 15 16 16 16 16 16 16 17 15 13 12 13 13 13 13 13 12 12 12 12 12 12 11 11 10 10 10 9 9 9 10 10 12 13 15 16 14 11 8 7 8 9
9 10 11 12 12 13 13 14 14 14 14 14 14 15 15 15 13 12 11 12 12 12 12 12 12 12 12 13 14 14 14 14 14 15 16 16 16 16 17 17 17 16 14 13 12 12 12 13 14 15 16 16 17 16 15 14 13 13 12 12 13 12 12 12 12 11 11 10 10 9 9 9 9 8 9 9 10 12 14 15 14 11 7 6 7 8
10 11 12 12 12 13 13 14 14 14 14 15 15 15 14 13 11 10 11 11 12 12 12 12 12 12 12 12 13 13 13 13 13 14 14 14 14 14 15 16 16 14 11 8 6 5 4 5 6 9 12 14 14 15 16 15 13 12 11 12 12 12 12 11 11 10 10 10 9 9 8 8 8 8 8 8 9 10 12 14 14 11 7 6 7 7
Wind_Direction
290 292 293 293 292 291 290 290 291 291 291 292 293 294 295 295 295 295 296 296 295 295 295 295 295 296 297 297 297 296 295 294 293 291 291 291 291 291 290 290 290 289 288 288 287 286 286 285 284 283 282 281 280 278 277 277 276 276 275 275 274 274 273 273 272 272 272 272 272 272 272 271 270 269 269 271 272 271 270 269 269 269 270 270 270 269
291 291 292 292 290 289 289 290 291 291 291 291 292 292 294 294 294 295 295 295 294 294 293 293 293 294 294 295 295 294 292 291 290 290 290 290 290 290 290 290 290 289 288 288 287 286 286 285 284 284 283 282 280 279 278 277 276 275 275 274 274 273 272 272 271 271 271 271 271 271 271 271 270 270 270 271 271 271 272 271 271 271 271 272 272 273
291 291 290 291 290 288 288 291 292 291 291 291 291 291 293 293 292 292 293 293 294 293 292 292 292 292 292 293 293 293 291 290 290 290 290 290 291 290 290 290 289 289 288 288 287 286 286 285 285 284 283 282 281 280 279 278 278 277 276 276 275 274 273 273 271 271 270 269 269 269 269 269 270 270 271 271 271 272 273 274 274 275 275 275 275 275
288 288 289 292 291 288 288 290 292 292 292 291 291 292 292 291 290 290 291 291 292 292 292 292 292 291 291 292 292 292 292 291 290 290 290 290 290 290 290 290 289 288 288 287 287 287 286 286 285 284 284 283 282 282 281 281 280 280 280 279 279 279 278 277 276 275 274 273 272 271 270 269 269 269 270 270 271 272 273 273 275 277 279 278 276 275
284 286 288 291 291 290 290 291 292 292 292 291 291 291 291 289 288 289 290 291 291 291 291 292 292 291 290 290 291 292 292 292 292 291 291 290 290 290 289 289 288 288 287 287 287 286 286 285 285 284 284 283 282 282 281 281 281 281 281 281 281 280 280 280 279 279 279 279 279 278 277 275 274 272 271 270 270 270 271 272 274 276 277 276 274 272
282 284 287 288 288 289 291 291 291 291 291 291 291 290 290 289 289 289 290 290 291 291 291 291 291 291 290 290 290 291 292 292 292 291 290 290 289 289 288 288 287 287 286 286 286 285 285 285 285 284 284 283 283 282 281 280 280 280 279 279 278 278 277 277 277 277 277 277 278 278 278 278 277 276 274 273 271 270 270 271 272 273 273 272 271 270
283 284 285 286 286 286 287 288 288 288 288 289 290 290 290 291 291 290 289 290 291 291 292 292 292 291 290 289 290 291 292 292 292 292 290 290 289 288 287 286 286 285 285 284 284 284 283 283 284 284 284 284 283 282 281 280 279 279 278 277 276 276 275 274 274 273 272 272 272 272 272 272 273 273 273 272 271 269 269 269 270 271 271 271 271 269
283 284 284 284 285 286 285 285 285 285 285 286 287 289 290 291 291 291 291 291 290 290 291 292 292 292 291 291 291 292 292 293 293 293 293 293 291 290 288 287 286 285 284 284 283 283 283 283 283 284 284 284 283 282 281 280 280 279 278 278 278 277 276 275 274 273 271 271 270 270 269 269 268 268 268 268 268 268 267 268 268 269 271 272 272 271
279 282 283 282 282 283 284 283 283 283 283 282 283 285 287 289 291 292 292 291 290 290 289 290 291 292 292 292 293 293 293 293 293 293 293 293 292 292 291 290 288 286 285 284 283 282 282 283 283 284 284 284 283 282 281 280 280 280 280 280 279 278 278 276 275 274 273 272 271 271 270 269 269 268 267 266 266 265 266 266 267 268 269 271 272 272
274 277 279 279 278 277 279 281 282 282 281 280 279 279 280 282 286 289 290 290 290 290 288 287 288 290 292 294 294 294 293 293 292 292 291 289 289 289 289 288 287 286 285 284 283 282 282 282 282 282 283 283 282 281 280 280 279 279 279 280 281 280 280 279 278 276 275 274 273 272 271 272 271 270 269 268 267 266 265 265 265 266 267 268 269 270
272 273 274 275 275 274 273 275 278 281 281 279 278 276 275 275 278 281 283 286 289 290 289 287 286 287 289 292 294 294 295 294 294 293 292 290 288 288 288 287 286 286 285 284 284 283 282 282 282 282 282 282 281 280 280 279 279 279 279 280 280 281 281 280 280 279 277 276 275 273 272 273 272 271 271 270 268 267 266 265 265 265 266 266 267 268
269 271 271 271 272 272 271 273 275 278 279 278 277 276 274 274 274 274 274 278 283 286 288 288 287 286 286 288 290 293 294 294 294 294 293 292 291 290 289 289 289 288 288 287 286 285 284 284 283 283 283 284 283 283 282 281 281 280 280 280 280 280 280 280 280 279 279 278 276 275 274 273 272 271 271 270 269 268 267 266 265 265 266 266 266 267
266 268 270 270 270 270 271 272 274 275 275 272 272 273 273 275 276 275 273 273 277 282 285 287 287 286 285 284 285 287 290 292 292 292 292 291 290 290 290 289 289 289 289 288 288 287 287 286 286 285 285 285 285 285 284 283 283 283 283 282 281 281 280 279 279 279 278 278 277 276 275 274 273 272 271 270 269 268 267 266 266 265 265 266 266 266
268 269 269 268 268 267 267 268 269 270 269 268 268 270 272 275 277 277 276 276 277 280 282 282 283 284 284 283 282 283 285 287 288 289 288 288 288 288 289 288 288 288 288 286 286 286 287 286 285 285 285 285 285 284 284 284 283 283 284 284 283 282 281 280 279 279 279 278 278 277 276 275 274 273 272 271 270 269 269 267 266 265 265 266 266 267
274 274 271 269 268 268 268 270 270 268 267 267 268 270 273 276 278 278 278 278 279 280 280 279 279 280 282 282 282 283 284 284 284 285 286 286 288 289 289 288 288 288 287 285 284 284 285 284 283 283 285 285 284 284 283 283 282 282 282 283 282 282 281 279 278 278 278 278 277 277 276 275 274 273 272 272 271 270 269 269 267 266 265 265 266 266
289 288 285 283 281 280 278 277 274 270 269 270 272 274 275 278 280 280 280 279 279 279 279 277 278 280 283 284 285 285 284 282 281 282 284 287 289 291 290 288 287 287 286 284 283 283 283 282 282 282 283 284 284 284 282 281 280 279 280 280 280 279 278 278 277 277 277 277 276 276 275 275 274 273 272 271 270 269 269 268 268 266 266 265 266 266
287 286 284 284 283 281 279 277 274 274 278 280 281 281 280 280 280 280 280 278 278 277 274 271 271 281 287 290 290 288 285 282 281 283 285 287 290 291 291 287 284 284 285 284 282 281 281 281 281 281 281 283 284 284 282 280 278 277 277 277 278 277 277 277 277 277 277 277 276 276 275 275 274 273 272 271 270 269 269 268 267 267 266 266 266 267
280 278 277 276 276 276 276 279 284 288 289 287 285 283 282 280 280 279 277 275 273 272 269 266 266 272 283 289 289 288 286 284 282 283 285 287 289 292 292 288 284 281 282 282 281 280 279 278 278 279 280 281 282 282 281 279 278 277 276 276 277 277 277 277 277 277 278 278 277 276 276 275 274 273 272 272 271 270 269 269 268 268 268 268 268 268
278 276 274 272 273 275 282 289 293 292 289 286 284 283 282 281 280 277 273 271 268 266 264 264 267 270 274 278 282 285 287 285 282 281 281 283 287 291 293 290 284 280 279 279 279 278 277 277 277 278 279 280 281 280 279 278 277 276 276 275 276 276 276 277 278 278 278 278 278 278 276 275 275 274 273 273 272 271 271 270 269 269 269 268 268 268
274 272 269 269 274 281 287 288 288 286 285 284 283 282 280 280 278 275 272 271 269 266 263 263 264 266 269 273 278 283 287 288 286 283 280 281 285 289 291 289 284 279 277 277 277 276 276 276 277 278 279 281 281 280 279 278 276 275 275 275 275 276 276 277 277 278 278 279 279 279 278 277 276 275 275 274 274 273 273 272 271 271 270 270 270 269
273 270 268 270 275 279 281 281 281 282 283 283 282 280 278 277 275 273 270 270 268 266 264 262 262 264 267 271 276 281 286 289 290 288 285 284 284 286 288 287 283 279 276 276 276 276 275 276 277 279 280 281 282 282 279 278 276 276 275 275 275 276 276 277 277 278 278 279 279 280 280 279 278 277 276 275 275 275 274 274 274 273 273 272 271 271
276 276 275 275 273 272 273 276 278 280 282 281 279 277 276 275 273 271 269 268 266 264 263 263 265 268 271 274 277 281 285 286 285 284 286 285 284 284 285 285 282 278 274 275 276 277 277 277 278 280 282 283 283 282 280 278 276 276 276 276 275 276 276 276 277 278 278 279 279 280 280 281 281 280 278 277 276 276 276 276 276 275 274 274 273 273
275 276 277 275 272 269 269 272 276 279 281 280 278 275 273 271 269 267 267 265 264 265 268 270 273 275 276 277 279 282 283 283 282 282 282 281 281 282 284 284 280 275 272 274 276 279 279 279 280 282 284 284 284 283 281 279 277 276 276 275 275 275 276 276 277 278 278 279 280 280 281 281 281 282 282 281 279 277 277 277 277 277 276 276 275 274
276 276 276 274 271 268 267 268 272 277 282 282 281 278 274 270 266 263 262 263 266 269 271 275 277 278 278 280 281 282 282 282 281 279 276 273 275 279 282 281 277 273 272 274 277 280 281 280 281 282 284 284 284 283 281 279 278 277 276 274 274 275 275 276 277 278 279 280 281 281 282 282 283 283 283 284 283 281 279 279 279 279 278 277 276 276
277 276 276 275 273 271 270 271 274 279 283 286 287 286 284 278 271 265 264 266 268 270 273 277 279 281 282 284 284 284 284 283 279 272 265 266 271 274 277 276 273 271 273 276 278 280 280 280 281 282 283 283 283 282 281 280 278 277 275 273 272 273 274 275 276 278 279 280 281 281 282 283 284 285 285 285 285 284 282 281 280 279 279 279 278 278
274 274 276 277 278 279 279 280 281 283 285 288 291 295 299 298 294 288 284 279 277 278 281 284 284 283 284 285 284 284 286 286 280 269 260 262 269 273 276 276 273 272 274 278 280 280 280 279 280 281 281 281 281 282 281 280 278 276 274 273 271 272 274 275 276 277 278 279 280 281 282 284 285 287 287 287 286 285 284 282 280 280 280 281 281 281
272 272 274 277 279 280 281 282 284 285 285 286 289 295 305 313 314 306 295 289 289 290 289 285 282 282 284 284 283 283 287 290 288 280 272 270 273 276 278 278 277 276 276 278 279 279 278 277 277 277 278 279 280 281 280 280 278 276 274 272 271 272 273 274 275 275 277 277 279 281 283 286 287 288 289 288 288 287 285 281 280 280 281 283 284 285
274 274 275 276 277 279 280 281 281 281 281 280 282 286 295 304 306 301 294 295 297 297 289 282 277 279 284 284 283 284 285 285 284 282 278 274 272 273 275 276 275 274 275 277 278 278 275 273 272 273 274 276 278 279 280 279 278 276 274 272 271 271 271 271 271 272 273 275 278 281 285 287 289 290 290 289 289 288 285 282 281 282 283 284 285 287
275 275 276 277 278 279 279 278 277 275 274 275 279 285 292 296 296 292 291 295 298 295 286 280 278 278 281 283 284 283 281 278 276 275 271 266 264 266 269 271 271 271 273 276 279 278 273 270 268 269 271 274 276 277 277 277 276 274 272 270 269 267 266 265 265 267 270 273 277 282 286 288 289 290 290 289 289 288 287 285 284 285 286 286 288 289
277 277 278 281 282 281 277 274 271 269 270 274 281 288 292 294 293 291 291 292 289 283 278 276 275 275 276 279 280 279 277 278 279 276 268 260 258 262 267 269 270 271 273 277 281 279 273 272 270 268 268 270 271 272 273 272 270 268 266 264 261 259 259 261 263 267 271 276 280 284 287 288 289 289 289 288 287 287 288 288 288 288 289 289 290 291
280 281 283 286 286 284 280 276 274 274 276 280 285 289 293 295 296 296 295 290 281 273 270 271 271 271 272 274 275 272 276 285 288 289 281 266 261 267 277 281 282 281 279 276 278 303 284 281 278 274 267 266 265 264 264 262 260 258 256 255 254 256 260 265 270 274 278 281 284 286 287 288 288 289 289 288 288 288 288 289 290 290 291 291 292 292
288 290 291 292 292 292 292 293 292 291 290 291 293 295 298 300 301 300 298 291 282 273 269 271 272 273 272 271 270 272 281 290 295 304 312 307 300 297 301 300 297 293 287 276 269 268 284 291 291 287 279 271 264 259 255 251 248 247 249 251 255 262 269 274 278 280 283 285 286 287 288 288 287 287 288 289 289 289 290 291 292 293 294 294 295 295
293 294 295 296 297 298 298 298 297 295 295 296 299 302 304 304 303 300 297 293 286 279 273 272 272 273 273 273 273 277 283 289 295 303 314 315 310 304 302 299 295 292 287 277 268 264 267 273 282 284 280 274 266 259 252 247 245 245 249 255 262 270 276 280 281 282 283 284 285 286 287 288 288 288 288 289 289 290 291 293 295 295 295 296 298 299
292 294 296 296 295 294 293 291 291 292 295 298 302 305 306 305 302 299 295 292 287 282 276 270 268 271 276 280 282 283 284 286 289 296 302 304 300 295 293 290 286 283 281 276 270 266 265 267 271 275 275 271 265 258 253 250 250 251 254 260 266 273 278 280 280 279 279 280 281 283 286 289 290 290 290 290 291 292 293 296 299 299 296 296 299 301
294 295 295 293 291 288 287 288 289 292 295 299 301 303 303 301 299 296 293 290 286 282 277 272 270 272 277 280 282 282 282 285 289 293 295 293 289 286 284 281 278 277 276 275 273 270 269 267 266 266 268 268 263 257 253 251 252 254 257 261 266 271 275 277 276 276 276 276 278 281 286 290 292 293 294 294 294 296 299 300 302 301 300 299 300 302
293 292 290 288 285 284 284 285 288 291 294 296 297 297 297 296 295 294 292 290 287 284 280 278 277 278 278 277 276 278 282 286 290 292 291 288 284 280 277 275 275 276 277 277 276 274 273 272 269 266 263 262 261 258 253 249 249 250 252 256 260 265 269 271 272 272 273 274 276 280 286 290 293 295 296 297 298 300 302 301 301 302 304 305 306 306
289 285 283 281 280 279 281 283 285 287 289 290 292 293 294 295 297 298 297 296 294 292 290 289 289 288 286 284 282 282 285 288 290 291 291 289 283 277 273 274 277 279 279 278 276 275 273 273 272 268 262 256 253 253 252 246 243 243 246 250 254 258 263 266 268 270 271 273 277 282 287 292 294 296 298 299 301 301 302 301 303 306 310 312 312 311
283 279 277 277 277 277 278 279 280 281 283 286 289 292 295 299 301 303 303 302 300 299 300 300 300 298 295 292 290 290 290 291 292 292 292 291 287 282 278 279 281 281 278 275 274 272 271 271 270 267 264 256 252 251 251 245 240 239 243 247 251 254 258 263 267 270 272 276 280 285 289 293 295 296 298 300 301 302 303 305 308 311 314 315 314 313
280 277 275 274 275 274 274 274 275 278 282 286 290 294 299 302 305 305 304 303 301 302 303 303 302 301 299 297 296 294 293 292 291 290 289 289 288 287 283 281 280 279 277 274 271 269 266 265 263 263 266 262 257 253 250 245 241 241 244 248 250 253 258 264 269 272 275 279 282 286 290 292 294 296 297 299 301 303 306 308 311 313 316 317 317 316
279 277 275 274 274 274 273 273 275 279 283 288 293 297 301 304 306 305 302 300 300 303 304 304 302 300 298 296 295 293 292 291 289 288 288 287 286 284 281 277 275 275 274 273 270 267 264 262 261 262 263 265 265 262 255 248 243 243 244 245 246 252 262 268 272 274 277 280 283 286 289 292 293 294 296 298 300 303 307 309 311 312 314 317 318 318
280 278 276 276 278 278 276 276 278 281 284 289 294 298 302 303 302 300 298 299 300 303 304 304 302 299 296 294 293 293 293 293 294 294 293 292 289 285 281 276 273 272 273 272 271 268 264 262 261 261 261 262 264 264 262 255 251 248 243 241 247 257 267 271 272 274 277 280 283 286 288 290 291 292 295 297 299 302 304 306 307 309 312 315 317 317
280 278 278 279 280 280 279 279 280 283 287 292 295 297 299 299 296 294 295 297 300 302 302 302 299 297 296 296 296 296 296 296 297 298 298 297 295 291 286 280 276 274 273 272 271 269 266 263 261 260 260 261 261 262 261 259 256 251 247 247 254 264 271 273 274 276 279 281 284 286 288 290 291 293 295 297 298 298 299 301 303 307 311 315 317 317
277 277 280 281 282 281 281 281 283 287 291 294 294 295 296 295 294 293 295 296 297 298 299 297 295 295 295 298 300 301 301 300 299 298 298 298 298 296 292 287 282 279 275 272 270 270 268 265 261 260 260 259 259 259 260 260 257 253 251 252 255 261 269 274 277 279 281 283 285 287 290 292 294 296 296 296 296 296 296 297 301 306 312 316 318 318
279 280 281 281 282 282 282 284 287 291 293 292 290 291 293 295 295 295 294 293 293 294 294 294 295 295 296 299 302 305 305 304 302 301 300 300 300 300 297 292 288 283 278 271 268 268 269 267 264 262 261 259 257 256 257 258 256 254 253 254 254 253 255 267 275 279 280 282 284 286 289 292 294 295 295 294 293 293 295 298 304 309 313 317 319 320
281 279 278 279 280 281 283 285 288 290 290 288 287 289 292 295 296 294 291 290 290 290 291 294 296 299 300 302 304 306 306 306 305 305 305 307 308 308 304 298 291 285 279 273 268 266 266 266 266 266 265 261 256 253 253 254 255 255 255 257 258 260 262 268 273 276 278 281 283 286 289 292 294 294 294 294 295 296 299 304 309 313 316 318 320 321
277 274 275 277 279 281 281 284 286 288 287 287 288 290 293 296 295 292 288 286 286 287 291 294 297 298 299 301 303 303 303 304 306 307 308 311 314 316 314 309 300 290 282 276 272 270 267 265 266 267 267 263 257 252 250 250 251 253 255 258 261 264 268 271 273 276 278 281 284 288 291 293 293 293 294 296 299 301 303 306 309 313 315 318 320 321
273 272 276 280 282 282 283 286 287 287 287 288 289 291 294 295 293 290 287 285 286 289 293 298 298 296 294 295 297 298 298 300 303 305 307 311 315 319 321 318 312 301 290 281 276 272 270 268 267 266 263 260 256 253 251 249 248 249 253 257 260 262 264 268 273 277 280 283 285 289 291 291 290 291 293 298 301 304 304 304 304 307 311 316 319 321
278 282 287 288 288 287 287 287 287 287 286 287 289 291 292 292 290 288 287 290 294 298 299 299 297 294 291 291 293 294 295 296 298 300 304 308 314 319 322 321 317 309 298 288 279 273 270 269 268 266 262 258 256 256 254 251 249 249 252 255 257 258 261 267 273 279 281 283 285 288 288 287 287 289 293 297 299 301 304 303 302 302 309 317 321 324
304 303 298 294 291 290 289 288 287 286 285 286 287 288 288 287 286 286 290 296 299 299 297 295 293 291 290 291 292 294 295 295 297 299 302 306 311 316 320 321 318 311 302 290 280 272 268 267 267 265 262 257 254 254 255 253 252 251 253 254 254 256 260 266 272 276 279 281 283 284 284 284 286 289 293 292 294 298 302 303 301 302 312 325 329 329
313 306 300 295 293 291 289 288 286 284 283 284 284 284 282 280 280 284 291 296 297 294 291 289 288 288 288 289 292 293 294 295 296 297 299 304 309 314 317 319 317 311 302 290 278 269 265 265 265 266 264 259 253 250 250 251 252 252 251 251 252 254 257 262 268 272 275 278 280 282 281 282 284 287 289 288 291 296 300 301 301 303 320 337 340 339
311 306 302 298 294 292 290 288 286 283 282 282 282 280 278 275 278 285 293 296 294 291 288 287 285 283 283 285 288 290 291 292 293 294 297 303 311 316 317 317 314 308 300 289 276 264 261 261 266 268 267 262 255 248 245 245 246 247 248 249 250 252 255 258 263 267 271 274 278 280 280 280 282 284 285 287 290 294 297 299 299 303 324 347 353 352
Height
776 774 773 773 772 770 768 767 766 765 763 762 761 759 758 758 757 755 754 753 753 751 750 749 748 747 746 745 744 744 743 743 742 741 741 740 739 739 738 738 737 737 736 736 735 735 734 734 733 733 733 732 732 732 732 731 731 731 731 731 730 730 730 730 730 730 730 729 729 729 729 729 729 729 729 729 729 729 729 730 730 730 730 730 730 729
774 773 772 771 770 768 766 765 765 764 762 760 759 758 757 756 755 753 752 751 751 750 748 747 746 745 744 743 742 742 741 741 740 739 738 738 738 737 736 736 735 735 734 734 733 733 732 732 732 731 731 730 730 730 729 729 729 729 728 728 728 728 728 728 728 728 728 728 727 727 727 727 727 727 727 727 727 727 727 727 727 727 728 728 728 727
773 771 770 769 768 767 765 763 763 762 761 759 758 757 756 754 753 752 751 749 748 748 747 746 745 743 743 741 740 740 739 738 738 738 737 736 736 735 734 734 733 733 732 732 731 731 730 730 730 729 729 728 728 728 728 727 727 727 726 726 726 726 726 725 725 725 725 725 725 725 725 725 725 725 725 725 725 725 724 724 724 724 724 725 725 724
772 770 768 768 767 765 764 762 761 760 759 758 756 755 754 753 751 750 749 748 747 745 744 744 743 742 741 740 738 738 737 737 736 736 735 734 734 733 733 732 731 731 730 730 729 729 728 728 728 727 727 727 726 726 725 725 725 725 724 724 724 724 723 723 723 723 723 723 723 723 723 723 723 723 723 723 723 723 722 722 722 722 722 722 722 722
770 768 767 766 765 763 762 761 760 758 757 756 755 753 752 751 750 748 747 746 745 744 743 742 741 740 739 738 737 736 736 735 735 734 733 733 732 732 731 730 729 729 728 728 727 727 726 726 726 725 725 724 724 724 723 723 723 723 723 723 722 722 722 722 722 721 721 721 721 721 720 720 720 720 720 720 720 720 720 720 720 720 720 720 720 720
768 768 766 765 763 762 760 759 758 757 756 754 753 752 751 749 748 747 746 745 743 743 741 740 739 738 737 736 735 735 734 733 733 732 731 731 730 729 729 728 728 727 726 726 725 725 724 724 723 723 723 723 722 722 722 721 721 721 721 721 720 720 720 720 720 720 720 719 719 719 719 719 719 718 718 718 718 718 718 718 718 719 719 719 718 718
766 766 765 764 762 760 759 758 757 756 755 753 752 750 749 748 747 746 745 743 742 741 739 738 737 736 735 734 733 733 732 731 731 730 729 728 728 727 726 726 725 725 724 723 723 723 722 722 721 721 721 720 720 720 720 719 719 719 719 718 718 718 718 718 718 718 718 718 717 717 717 717 717 717 717 717 716 716 716 716 717 717 717 717 716 716
764 763 763 762 760 758 757 756 755 754 753 752 751 749 748 746 745 744 743 742 741 740 738 737 735 733 733 732 732 731 730 729 728 728 727 726 725 725 724 723 723 722 722 721 721 720 720 720 719 719 719 718 718 718 718 717 717 717 717 717 716 716 716 716 715 715 715 715 715 715 715 715 715 714 714 714 714 714 714 714 715 715 715 715 714 714
763 761 760 760 759 757 755 753 753 753 752 751 750 748 747 745 743 742 741 740 739 738 737 735 733 732 730 730 730 729 729 728 727 726 725 724 723 723 722 722 721 720 720 719 719 718 718 718 718 717 717 717 716 716 716 715 715 715 715 714 714 714 714 713 713 713 713 713 713 713 712 712 712 712 712 712 712 712 712 712 713 713 713 713 713 713
762 760 758 757 757 756 754 752 750 750 750 749 748 747 746 744 743 741 739 738 736 736 735 734 733 730 728 728 728 728 727 726 725 724 723 723 722 721 720 720 719 718 718 717 717 717 716 716 716 715 715 715 714 714 713 713 713 713 713 713 712 712 712 712 711 711 711 711 711 711 710 710 710 710 710 710 710 710 710 710 710 710 710 711 711 711
759 758 756 754 753 753 753 751 749 748 748 747 746 745 744 743 742 740 738 736 734 733 733 732 731 729 728 726 725 725 725 724 723 722 721 720 720 719 719 718 717 716 716 715 715 714 714 714 713 713 713 713 712 712 712 711 711 711 711 710 710 710 710 709 709 709 709 709 709 708 708 708 708 708 708 708 708 708 708 708 708 708 708 708 708 708
756 754 753 752 751 751 750 749 748 747 746 746 744 743 742 741 740 739 737 734 733 731 730 730 729 728 727 725 724 723 723 722 721 719 718 717 717 717 716 716 715 714 713 713 712 712 711 711 711 711 711 710 710 709 709 709 709 709 709 708 708 708 708 708 708 707 707 707 707 707 707 707 707 706 706 706 706 706 706 706 706 706 706 706 707 707
753 752 751 750 749 749 748 747 746 745 744 744 742 741 739 738 738 737 735 733 731 730 729 728 726 725 725 724 723 723 722 720 719 718 716 715 715 715 714 713 713 712 711 711 710 709 709 709 709 708 708 708 708 708 708 708 708 707 707 707 707 706 706 706 706 705 705 705 705 705 705 705 705 705 705 704 704 704 704 704 705 705 705 705 705 705
751 750 749 748 748 747 746 746 744 743 742 741 739 738 737 736 735 735 733 732 730 728 728 727 725 723 722 722 722 721 720 719 717 716 714 713 713 713 713 712 711 710 709 709 708 707 707 707 707 706 706 706 706 706 706 706 706 706 705 705 705 704 704 704 704 704 703 703 703 703 703 703 703 703 703 703 703 703 703 703 703 703 703 703 703 703
750 749 748 747 746 745 744 743 742 740 739 738 737 736 735 735 734 733 732 730 728 727 726 725 723 721 720 719 720 720 719 718 716 714 712 711 711 712 712 711 709 708 708 707 706 705 705 705 705 704 704 704 704 704 704 704 704 704 703 703 703 703 703 702 702 702 702 702 702 702 701 701 701 701 701 701 701 701 701 701 701 701 701 701 701 701
749 748 747 745 744 743 742 741 740 738 737 736 735 735 734 733 732 731 730 728 726 725 724 723 722 720 718 717 718 718 718 716 715 713 711 709 709 710 711 710 708 707 706 705 704 704 703 703 703 703 702 702 702 702 702 702 702 702 702 702 701 701 701 701 701 700 700 700 700 700 700 700 699 699 699 699 699 699 699 699 699 699 699 699 699 699
748 747 746 744 743 741 740 739 738 737 735 735 734 733 733 731 730 729 728 726 725 723 723 722 721 719 716 714 715 716 716 715 714 712 710 708 707 708 709 709 707 705 703 703 703 702 702 702 701 701 700 700 700 700 700 700 700 700 700 700 700 699 699 699 699 699 698 698 698 698 698 698 698 698 698 698 698 698 697 697 697 697 697 697 697 697
746 745 744 742 740 739 738 737 736 735 734 734 733 732 731 729 728 727 726 724 723 723 722 721 720 718 717 714 713 713 714 714 713 711 709 707 705 705 706 707 706 704 702 701 700 700 700 700 699 699 698 698 698 698 698 698 698 698 698 698 698 698 698 698 697 697 697 697 697 696 696 696 696 696 696 696 695 695 695 695 695 695 695 695 695 695
743 743 742 740 738 737 736 736 735 734 733 732 731 730 728 727 726 725 724 723 722 721 720 719 718 717 716 713 712 711 713 713 712 710 708 706 704 703 704 704 704 702 700 699 698 698 698 698 698 697 697 697 697 697 697 697 697 697 697 696 696 696 696 696 695 695 695 695 695 694 694 694 694 694 694 694 693 693 693 693 693 693 693 693 693 693
741 739 739 738 736 735 734 734 733 733 732 731 730 728 727 725 724 723 722 721 720 719 718 718 716 715 714 713 711 710 711 711 711 709 707 705 703 701 702 702 702 700 698 696 696 696 696 696 695 695 695 695 695 695 695 695 695 695 694 694 694 694 694 694 694 693 693 693 693 693 693 693 692 692 692 692 692 692 692 692 691 691 691 691 691 691
738 736 736 735 735 733 733 732 731 731 730 729 728 727 725 723 722 720 719 718 718 717 716 715 714 713 713 712 710 709 710 710 709 708 706 704 702 700 700 700 699 698 696 694 694 694 695 694 693 693 693 693 693 693 693 693 693 693 693 693 693 693 692 692 692 692 692 692 691 691 691 691 691 690 690 690 690 690 690 690 689 689 689 689 689 689
736 734 733 733 733 732 730 729 729 728 728 728 727 725 723 721 719 718 716 715 714 714 713 713 713 712 712 711 709 708 708 709 708 707 705 703 700 698 698 698 698 696 694 692 692 692 693 692 692 691 691 691 691 691 691 691 691 691 691 691 691 691 691 691 691 690 690 690 690 690 689 689 689 689 689 688 688 688 688 688 688 688 687 687 687 687
734 732 731 731 730 729 728 727 726 726 725 725 724 722 720 718 717 714 713 712 712 712 712 711 711 711 710 709 708 707 706 707 707 706 704 702 698 696 696 697 696 694 692 691 691 691 691 690 690 689 689 689 689 689 689 689 689 689 689 689 689 689 689 689 689 689 689 688 688 688 688 688 688 688 687 687 687 687 686 686 686 686 685 685 685 684
731 729 728 728 727 726 726 725 724 723 723 722 721 719 717 715 713 711 710 710 710 710 710 710 709 709 708 707 706 705 704 705 705 705 703 700 697 694 694 695 694 693 690 690 690 690 689 688 688 688 687 687 687 687 687 687 687 687 687 687 687 688 688 688 687 687 687 687 687 687 686 686 686 686 686 685 685 685 685 684 684 684 683 683 683 683
728 726 725 725 724 724 723 723 722 721 721 720 718 716 714 712 710 709 709 709 709 709 709 708 708 707 705 705 704 703 702 702 703 703 701 698 695 693 693 693 693 691 689 688 688 688 688 687 686 686 686 685 685 685 685 685 685 685 686 686 686 686 686 686 686 686 686 686 685 685 685 685 685 684 684 684 683 683 683 683 683 682 682 681 681 681
726 724 724 723 723 722 722 721 720 719 719 718 717 715 713 711 710 709 709 708 708 708 708 707 706 705 704 703 702 701 700 700 700 700 699 697 693 691 690 691 691 690 688 687 687 687 686 685 684 684 684 683 683 683 683 684 684 684 684 684 684 684 684 684 684 684 684 684 684 684 684 683 683 683 683 682 682 682 681 681 681 680 680 680 679 679
724 723 722 722 721 720 720 719 718 718 717 716 715 713 712 711 709 709 708 707 707 707 707 706 704 703 702 701 700 699 699 699 698 698 697 696 693 691 689 690 690 689 687 686 685 685 685 684 683 683 682 682 682 682 682 682 682 682 683 683 683 683 683 683 683 683 683 683 683 683 682 682 682 681 681 681 680 680 680 679 679 679 678 678 678 677
721 721 720 719 718 718 717 716 716 715 714 713 712 711 710 709 708 707 706 705 705 705 705 704 703 702 700 699 698 698 698 698 697 697 696 695 693 690 688 688 688 687 686 684 683 683 683 682 682 681 681 680 680 680 680 680 681 681 681 681 681 681 681 682 682 682 682 682 681 681 681 681 680 680 680 679 679 679 678 678 678 678 677 677 676 675
718 718 718 717 716 715 714 713 713 712 711 711 710 709 708 708 707 706 704 704 704 704 703 703 702 701 699 698 697 697 696 696 695 695 694 693 691 688 686 687 687 686 685 684 682 681 681 680 680 680 679 679 679 679 679 679 679 679 679 680 680 680 680 680 680 680 680 680 680 680 680 679 679 679 678 678 678 678 678 677 677 676 676 675 674 674
715 715 715 714 713 712 711 710 709 709 708 708 708 707 706 706 705 704 703 703 703 703 703 701 701 700 699 698 696 695 693 693 693 693 692 691 688 686 685 685 685 685 685 684 682 680 678 678 678 678 678 678 678 678 678 678 678 678 678 678 678 679 679 679 679 679 679 679 679 678 678 678 678 678 677 677 677 677 676 676 676 675 674 673 673 672
713 713 713 712 711 711 709 708 707 707 707 706 706 705 705 704 703 703 703 703 703 702 701 700 699 698 698 697 695 693 690 690 691 691 690 689 687 685 685 685 684 684 684 684 683 680 677 676 676 676 677 677 677 677 677 677 677 677 677 677 677 678 678 678 678 678 678 678 678 677 677 677 677 676 676 676 676 675 675 675 674 674 673 672 671 671
712 712 711 711 710 709 708 708 707 706 706 705 704 703 703 702 702 702 701 701 701 701 700 699 698 697 697 696 694 692 689 689 689 690 689 688 686 685 685 684 684 683 683 683 683 681 678 676 675 675 676 676 676 676 676 676 676 676 676 676 676 676 676 677 677 676 676 676 676 676 676 676 675 675 675 675 674 674 674 673 673 673 672 671 670 670
710 709 709 708 708 707 707 706 706 705 704 703 703 702 701 701 701 700 700 700 700 699 699 698 697 696 695 694 692 691 689 689 689 689 689 688 687 685 684 684 683 683 682 682 681 680 678 676 675 675 675 675 675 675 675 675 675 675 675 675 675 675 675 675 675 675 675 675 675 675 675 674 674 674 674 673 673 673 673 672 672 671 671 670 669 669
708 707 706 706 705 705 704 704 704 703 703 702 701 700 700 699 699 699 699 698 698 698 698 697 696 694 693 692 691 689 688 688 688 688 688 688 687 685 683 683 682 681 681 680 679 678 677 676 675 674 674 673 673 673 673 674 674 674 674 674 674 674 674 674 674 674 674 674 674 673 673 673 673 673 673 672 672 672 671 671 670 670 670 669 669 668
705 705 704 704 703 703 702 702 702 701 701 700 700 699 699 698 698 698 698 697 697 696 696 695 694 693 692 691 689 688 686 686 687 687 688 688 686 684 683 681 680 680 679 678 678 677 675 674 673 673 673 672 672 672 672 672 672 673 673 673 673 673 673 673 673 673 673 673 672 672 672 672 672 672 671 671 671 670 670 670 669 669 669 668 668 667
703 703 702 702 701 701 700 700 699 699 699 698 698 698 698 697 697 696 696 695 695 694 694 693 693 692 691 690 688 687 685 684 685 685 686 686 685 683 681 679 679 678 678 677 676 676 674 673 672 672 672 671 670 670 670 671 671 671 671 671 671 671 672 672 672 671 671 671 671 671 671 671 670 670 670 670 669 669 669 668 668 668 667 667 667 666
702 701 700 700 699 699 698 698 698 698 697 697 697 697 696 696 695 695 694 693 693 692 692 691 690 689 689 688 687 686 684 683 683 683 683 683 683 681 679 678 677 677 677 676 675 674 673 672 671 670 670 669 669 669 669 669 669 669 669 670 670 670 670 670 670 670 670 670 670 669 669 669 669 669 669 668 668 668 667 667 667 666 666 665 665 664
700 699 698 698 698 697 697 697 696 696 696 696 695 695 695 694 693 693 692 692 691 690 690 689 688 688 687 686 685 684 683 682 681 681 681 681 680 679 678 676 676 675 675 675 674 673 673 671 670 669 668 668 668 668 668 668 668 668 668 668 669 669 669 669 669 669 669 668 668 668 668 668 668 668 667 667 667 666 666 665 665 665 664 663 663 662
699 698 697 697 696 696 695 695 695 694 694 694 694 693 693 693 692 691 691 690 689 689 688 688 687 686 685 684 683 683 682 681 680 680 679 679 678 678 677 675 674 673 673 673 673 672 671 670 669 668 667 667 666 667 667 667 667 667 667 668 668 668 668 668 668 668 668 668 667 667 667 667 667 667 666 666 666 665 665 664 664 663 663 662 661 660
697 696 696 695 694 694 694 693 693 693 693 693 692 692 691 691 690 689 689 688 688 687 687 686 685 684 683 683 682 681 680 679 678 678 677 676 676 675 675 674 673 672 672 671 671 670 669 668 668 667 666 666 666 666 666 666 666 666 667 667 667 667 667 667 667 667 666 666 666 666 666 666 666 666 665 665 665 664 664 663 663 662 662 661 660 659
696 695 694 693 693 693 693 692 692 692 691 691 690 690 689 689 688 688 687 687 686 686 685 684 683 683 682 681 680 680 679 678 676 675 675 674 674 673 673 672 671 670 670 669 669 668 668 667 666 666 665 665 665 665 665 665 665 665 666 666 665 665 666 666 666 666 665 665 665 665 665 665 665 664 664 664 664 663 663 663 662 661 661 660 660 659
694 693 693 692 692 691 691 691 691 690 690 689 689 688 688 688 687 686 686 685 684 684 683 683 682 681 680 679 678 678 677 676 675 674 673 673 672 671 671 670 669 669 668 668 667 666 666 666 665 664 664 664 664 664 663 664 664 664 664 664 664 664 664 664 664 664 664 664 664 664 664 664 664 663 663 663 663 662 662 662 661 661 660 659 659 658
693 692 691 691 690 690 690 689 689 689 688 688 688 687 687 686 686 685 685 684 683 683 682 682 681 680 678 678 677 676 675 674 673 673 672 671 670 670 669 668 668 668 667 666 665 665 664 664 664 663 663 663 663 663 663 663 663 663 663 663 664 664 664 663 663 663 663 663 663 663 663 663 663 663 663 662 662 661 661 660 660 660 659 659 658 657
691 690 690 689 689 689 688 688 688 687 687 687 686 685 685 685 685 684 683 683 682 681 681 680 679 679 678 677 675 674 673 673 672 671 670 670 669 668 668 667 666 666 666 665 664 663 663 663 662 662 662 662 662 662 661 662 662 662 662 662 663 663 663 662 662 662 662 662 663 663 663 663 662 662 661 661 660 660 659 659 659 659 658 658 657 657
689 688 688 688 688 688 687 687 686 686 686 685 685 684 684 684 683 683 682 682 681 680 680 679 679 678 677 676 675 674 673 671 670 669 668 668 668 667 666 666 665 664 664 663 663 663 662 662 661 661 661 661 661 660 660 660 661 661 661 661 661 661 661 661 661 661 661 661 661 662 662 662 661 661 660 660 659 659 658 658 658 658 657 657 656 656
688 687 687 687 687 687 686 686 685 685 684 684 683 683 683 682 682 682 681 680 680 679 679 678 678 678 676 675 674 673 672 671 669 668 667 666 666 665 665 664 663 663 662 662 662 661 661 661 660 660 660 660 659 659 659 659 660 660 660 660 660 660 660 660 660 660 660 660 661 661 661 661 660 660 659 659 658 658 657 657 657 657 656 656 656 655
686 686 686 686 686 685 685 684 684 683 683 683 682 682 681 681 681 680 680 679 679 678 678 678 678 677 676 675 674 673 672 670 669 668 666 665 664 664 663 663 662 662 661 660 660 660 659 659 659 659 659 659 658 658 658 658 658 659 659 659 659 659 659 658 658 659 659 659 660 660 660 660 659 659 658 658 657 657 656 656 656 656 656 656 655 654
685 685 685 685 685 684 684 683 683 682 682 681 681 680 680 680 679 679 678 678 678 678 678 677 677 676 675 674 673 673 671 670 668 667 666 665 663 663 662 662 661 660 660 659 659 658 658 658 658 658 658 658 657 657 657 657 657 657 657 658 658 658 658 658 658 658 658 658 659 659 659 659 658 658 658 657 657 656 655 655 655 655 655 655 655 654
685 685 684 684 684 683 683 682 682 681 681 680 679 679 678 678 678 678 678 678 677 677 677 676 676 675 674 673 672 671 670 669 668 667 666 664 663 662 661 661 660 659 658 658 657 657 657 656 656 656 656 657 656 656 656 656 656 656 656 656 657 657 657 657 657 657 658 658 658 658 658 658 658 658 658 657 656 655 655 654 654 654 654 655 654 654
684 684 683 683 683 682 682 681 680 680 679 679 678 678 677 677 677 677 677 677 676 676 676 675 675 674 673 672 671 670 669 668 667 666 665 664 663 662 661 660 659 658 657 657 656 656 656 655 655 654 654 655 655 655 655 654 655 655 655 655 655 656 656 656 656 657 657 657 657 657 657 657 657 657 657 657 656 655 655 654 654 654 654 654 654 654
683 683 683 682 682 681 680 680 679 679 678 678 677 676 676 675 675 675 675 675 675 675 674 674 673 673 672 671 670 669 668 668 667 665 664 663 663 662 661 660 659 658 657 656 655 655 655 654 653 653 652 653 653 653 653 653 654 654 654 654 654 655 655 655 655 656 656 656 657 657 657 657 657 657 657 656 656 655 655 654 653 653 653 654 653 653